Time,TemperatureF,DewpointF,PressureIn,WindDirection,WindDirectionDegrees,WindSpeedMPH,WindSpeedGustMPH,Humidity,HourlyPrecipIn,Conditions,Clouds,dailyrainin,SolarRadiationWatts/m^2,SoftwareType,DateUTC
2013-03-22 00:02:00,29.0,1.0,-100.00,SSE,159,4.0,12.0,30,0.00,,,0.03,0.000000,,2013-03-22 06:02:00,
2013-03-22 00:13:00,29.0,1.0,-100.00,SSE,159,4.0,12.0,30,0.00,,,0.03,0.000000,,2013-03-22 06:13:00,
2013-03-22 00:22:00,29.0,1.0,-100.00,SSE,159,4.0,12.0,30,0.00,,,0.03,0.000000,,2013-03-22 06:22:00,
2013-03-22 00:43:00,27.0,2.0,-100.00,NW,315,3.0,11.0,33,0.00,,,0.03,0.000000,,2013-03-22 06:43:00,
2013-03-22 00:52:00,27.0,2.0,-100.00,NW,315,3.0,11.0,33,0.00,,,0.03,0.000000,,2013-03-22 06:52:00,
2013-03-22 01:02:00,27.0,2.0,-100.00,NW,315,3.0,11.0,33,0.00,,,0.03,0.000000,,2013-03-22 07:02:00,
2013-03-22 01:12:00,27.0,2.0,-100.00,NW,315,3.0,11.0,33,0.00,,,0.03,0.000000,,2013-03-22 07:12:00,
2013-03-22 01:22:00,27.0,2.0,-100.00,NW,315,3.0,11.0,33,0.00,,,0.03,0.000000,,2013-03-22 07:22:00,
2013-03-22 01:42:00,25.0,2.0,-100.00,SSW,202,2.0,10.0,36,0.00,,,0.03,0.000000,,2013-03-22 07:42:00,
2013-03-22 01:52:00,25.0,2.0,-100.00,SSW,202,2.0,10.0,36,0.00,,,0.03,0.000000,,2013-03-22 07:52:00,
2013-03-22 02:03:00,25.0,2.0,-100.00,SSW,202,2.0,10.0,36,0.00,,,0.03,0.000000,,2013-03-22 08:03:00,
2013-03-22 02:12:00,25.0,2.0,-100.00,SSW,202,2.0,10.0,36,0.00,,,0.03,0.000000,,2013-03-22 08:12:00,
2013-03-22 02:22:00,25.0,2.0,-100.00,SSW,202,2.0,10.0,36,0.00,,,0.03,0.000000,,2013-03-22 08:22:00,
2013-03-22 02:42:00,24.0,2.0,-100.00,West,276,2.0,7.0,37,0.00,,,0.03,0.000000,,2013-03-22 08:42:00,
2013-03-22 02:52:00,24.0,2.0,-100.00,West,276,2.0,7.0,37,0.00,,,0.03,0.000000,,2013-03-22 08:52:00,
2013-03-22 03:02:00,24.0,2.0,-100.00,West,276,2.0,7.0,37,0.00,,,0.03,0.000000,,2013-03-22 09:02:00,
2013-03-22 03:12:00,24.0,2.0,-100.00,West,276,2.0,7.0,37,0.00,,,0.03,0.000000,,2013-03-22 09:12:00,
2013-03-22 03:22:00,24.0,2.0,-100.00,West,276,2.0,7.0,37,0.00,,,0.03,0.000000,,2013-03-22 09:22:00,
2013-03-22 03:42:00,23.0,0.0,-100.00,West,271,1.0,9.0,36,0.00,,,0.03,0.000000,,2013-03-22 09:42:00,
2013-03-22 03:53:00,23.0,0.0,-100.00,West,271,1.0,9.0,36,0.00,,,0.03,0.000000,,2013-03-22 09:53:00,
2013-03-22 04:03:00,23.0,0.0,-100.00,West,271,1.0,9.0,36,0.00,,,0.03,0.000000,,2013-03-22 10:03:00,
2013-03-22 04:12:00,23.0,0.0,-100.00,West,271,1.0,9.0,36,0.00,,,0.03,0.000000,,2013-03-22 10:12:00,
2013-03-22 04:22:00,23.0,0.0,-100.00,West,271,1.0,9.0,36,0.00,,,0.03,0.000000,,2013-03-22 10:22:00,
2013-03-22 04:42:00,21.0,-1.0,-100.00,WSW,252,3.0,6.0,38,0.00,,,0.03,0.000000,,2013-03-22 10:42:00,
2013-03-22 04:52:00,21.0,-1.0,-100.00,WSW,252,3.0,6.0,38,0.00,,,0.03,0.000000,,2013-03-22 10:52:00,
2013-03-22 05:03:00,21.0,-1.0,-100.00,WSW,252,3.0,6.0,38,0.00,,,0.03,0.000000,,2013-03-22 11:03:00,
2013-03-22 05:12:00,21.0,-1.0,-100.00,WSW,252,3.0,6.0,38,0.00,,,0.03,0.000000,,2013-03-22 11:12:00,
2013-03-22 05:22:00,21.0,-1.0,-100.00,WSW,252,3.0,6.0,38,0.00,,,0.03,0.000000,,2013-03-22 11:22:00,
2013-03-22 05:42:00,24.0,-4.0,-100.00,SSW,204,5.0,9.0,28,0.00,,,0.03,0.000000,,2013-03-22 11:42:00,
2013-03-22 05:52:00,24.0,-4.0,-100.00,SSW,204,5.0,9.0,28,0.00,,,0.03,0.000000,,2013-03-22 11:52:00,
2013-03-22 06:02:00,24.0,-4.0,-100.00,SSW,204,5.0,9.0,28,0.00,,,0.03,0.000000,,2013-03-22 12:02:00,
2013-03-22 06:12:00,24.0,-4.0,-100.00,SSW,204,5.0,9.0,28,0.00,,,0.03,0.000000,,2013-03-22 12:12:00,
2013-03-22 06:22:00,24.0,-4.0,-100.00,SSW,204,5.0,9.0,28,0.00,,,0.03,0.000000,,2013-03-22 12:22:00,
2013-03-22 06:42:00,24.0,-3.0,-100.00,SSW,201,6.0,9.0,30,0.00,,,0.03,0.000000,,2013-03-22 12:42:00,
2013-03-22 06:52:00,24.0,-3.0,-100.00,SSW,201,6.0,9.0,30,0.00,,,0.03,0.000000,,2013-03-22 12:52:00,
2013-03-22 07:02:00,24.0,-3.0,-100.00,SSW,201,6.0,9.0,30,0.00,,,0.03,0.000000,,2013-03-22 13:02:00,
2013-03-22 07:12:00,24.0,-3.0,-100.00,SSW,201,6.0,9.0,30,0.00,,,0.03,0.000000,,2013-03-22 13:12:00,
2013-03-22 07:22:00,24.0,-3.0,-100.00,SSW,201,6.0,9.0,30,0.00,,,0.03,0.000000,,2013-03-22 13:22:00,
2013-03-22 07:42:00,25.0,-3.0,-100.00,SSW,201,5.0,11.0,28,0.00,,,0.03,4.000000,,2013-03-22 13:42:00,
2013-03-22 07:52:00,25.0,-3.0,-100.00,SSW,201,5.0,11.0,28,0.00,,,0.03,4.000000,,2013-03-22 13:52:00,
2013-03-22 08:02:00,25.0,-3.0,-100.00,SSW,201,5.0,11.0,28,0.00,,,0.03,4.000000,,2013-03-22 14:02:00,
2013-03-22 08:12:00,25.0,-3.0,-100.00,SSW,201,5.0,11.0,28,0.00,,,0.03,4.000000,,2013-03-22 14:12:00,
2013-03-22 08:22:00,25.0,-3.0,-100.00,SSW,201,5.0,11.0,28,0.00,,,0.03,4.000000,,2013-03-22 14:22:00,
2013-03-22 08:43:00,24.0,3.0,-100.00,ESE,123,4.0,11.0,39,0.00,,,0.03,177.000000,,2013-03-22 14:43:00,
2013-03-22 08:52:00,24.0,3.0,-100.00,ESE,123,4.0,11.0,39,0.00,,,0.03,177.000000,,2013-03-22 14:52:00,
2013-03-22 09:03:00,24.0,3.0,-100.00,ESE,123,4.0,11.0,39,0.00,,,0.03,177.000000,,2013-03-22 15:03:00,
2013-03-22 09:12:00,24.0,3.0,-100.00,ESE,123,4.0,11.0,39,0.00,,,0.03,177.000000,,2013-03-22 15:12:00,
2013-03-22 09:22:00,24.0,3.0,-100.00,ESE,123,4.0,11.0,39,0.00,,,0.03,177.000000,,2013-03-22 15:22:00,
2013-03-22 09:43:00,28.0,6.0,-100.00,ESE,107,2.0,5.0,38,0.00,,,0.03,488.000000,,2013-03-22 15:43:00,
2013-03-22 09:53:00,28.0,6.0,-100.00,ESE,107,2.0,5.0,38,0.00,,,0.03,488.000000,,2013-03-22 15:53:00,
2013-03-22 10:03:00,28.0,6.0,-100.00,ESE,107,2.0,5.0,38,0.00,,,0.03,488.000000,,2013-03-22 16:03:00,
2013-03-22 10:13:00,28.0,6.0,-100.00,ESE,107,2.0,5.0,38,0.00,,,0.03,488.000000,,2013-03-22 16:13:00,
2013-03-22 10:22:00,28.0,6.0,-100.00,ESE,107,2.0,5.0,38,0.00,,,0.03,488.000000,,2013-03-22 16:22:00,
2013-03-22 10:23:00,34.0,-3.0,-100.00,South,184,4.0,10.0,20,0.00,,,0.03,734.000000,,2013-03-22 16:23:00,
2013-03-22 10:42:00,34.0,-3.0,-100.00,South,184,4.0,10.0,20,0.00,,,0.03,734.000000,,2013-03-22 16:42:00,
2013-03-22 10:52:00,34.0,-3.0,-100.00,South,184,4.0,10.0,20,0.00,,,0.03,734.000000,,2013-03-22 16:52:00,
2013-03-22 11:03:00,34.0,-3.0,-100.00,South,184,4.0,10.0,20,0.00,,,0.03,734.000000,,2013-03-22 17:03:00,
2013-03-22 11:12:00,34.0,-3.0,-100.00,South,184,4.0,10.0,20,0.00,,,0.03,734.000000,,2013-03-22 17:12:00,
2013-03-22 11:42:00,37.0,-4.0,-100.00,SW,224,4.0,12.0,17,0.00,,,0.03,958.000000,,2013-03-22 17:42:00,
2013-03-22 11:53:00,37.0,-4.0,-100.00,SW,224,4.0,12.0,17,0.00,,,0.03,958.000000,,2013-03-22 17:53:00,
2013-03-22 12:02:00,37.0,-4.0,-100.00,SW,224,4.0,12.0,17,0.00,,,0.03,958.000000,,2013-03-22 18:02:00,
2013-03-22 12:12:00,37.0,-4.0,-100.00,SW,224,4.0,12.0,17,0.00,,,0.03,958.000000,,2013-03-22 18:12:00,
2013-03-22 12:22:00,37.0,-4.0,-100.00,SW,224,4.0,12.0,17,0.00,,,0.03,958.000000,,2013-03-22 18:22:00,
2013-03-22 12:42:00,36.0,-1.0,-100.00,SSW,213,6.0,16.0,20,0.00,,,0.03,997.000000,,2013-03-22 18:42:00,
2013-03-22 12:52:00,36.0,-1.0,-100.00,SSW,213,6.0,16.0,20,0.00,,,0.03,997.000000,,2013-03-22 18:52:00,
2013-03-22 13:02:00,36.0,-1.0,-100.00,SSW,213,6.0,16.0,20,0.00,,,0.03,997.000000,,2013-03-22 19:02:00,
2013-03-22 13:12:00,36.0,-1.0,-100.00,SSW,213,6.0,16.0,20,0.00,,,0.03,997.000000,,2013-03-22 19:12:00,
2013-03-22 13:22:00,36.0,-1.0,-100.00,SSW,213,6.0,16.0,20,0.00,,,0.03,997.000000,,2013-03-22 19:22:00,
2013-03-22 13:43:00,37.0,3.0,-100.00,South,190,5.0,14.0,23,0.00,,,0.02,781.000000,,2013-03-22 19:43:00,
2013-03-22 13:52:00,37.0,3.0,-100.00,South,190,5.0,14.0,23,0.00,,,0.02,781.000000,,2013-03-22 19:52:00,
2013-03-22 14:02:00,37.0,3.0,-100.00,South,190,5.0,14.0,23,0.00,,,0.02,781.000000,,2013-03-22 20:02:00,
2013-03-22 14:12:00,37.0,3.0,-100.00,South,190,5.0,14.0,23,0.00,,,0.02,781.000000,,2013-03-22 20:12:00,
2013-03-22 14:22:00,37.0,3.0,-100.00,South,190,5.0,14.0,23,0.00,,,0.02,781.000000,,2013-03-22 20:22:00,
2013-03-22 14:43:00,38.0,3.0,-100.00,South,174,6.0,15.0,22,0.00,,,0.01,902.000000,,2013-03-22 20:43:00,
2013-03-22 14:52:00,38.0,3.0,-100.00,South,174,6.0,15.0,22,0.00,,,0.01,902.000000,,2013-03-22 20:52:00,
2013-03-22 15:03:00,38.0,3.0,-100.00,South,174,6.0,15.0,22,0.00,,,0.01,902.000000,,2013-03-22 21:03:00,
2013-03-22 15:12:00,38.0,3.0,-100.00,South,174,6.0,15.0,22,0.00,,,0.01,902.000000,,2013-03-22 21:12:00,
2013-03-22 15:22:00,38.0,3.0,-100.00,South,174,6.0,15.0,22,0.00,,,0.01,902.000000,,2013-03-22 21:22:00,
2013-03-22 15:23:00,37.0,3.0,-100.00,SSE,159,4.0,14.0,23,0.00,,,0.00,471.000000,,2013-03-22 21:23:00,
2013-03-22 15:43:00,37.0,3.0,-100.00,SSE,159,4.0,14.0,23,0.00,,,0.00,471.000000,,2013-03-22 21:43:00,
2013-03-22 15:53:00,37.0,3.0,-100.00,SSE,159,4.0,14.0,23,0.00,,,0.00,471.000000,,2013-03-22 21:53:00,
2013-03-22 16:03:00,37.0,3.0,-100.00,SSE,159,4.0,14.0,23,0.00,,,0.00,471.000000,,2013-03-22 22:03:00,
2013-03-22 16:12:00,37.0,3.0,-100.00,SSE,159,4.0,14.0,23,0.00,,,0.00,471.000000,,2013-03-22 22:12:00,
2013-03-22 16:43:00,33.0,13.0,-100.00,NE,44,2.0,10.0,44,0.00,,,0.00,274.000000,,2013-03-22 22:43:00,
2013-03-22 16:53:00,33.0,13.0,-100.00,NE,44,2.0,10.0,44,0.00,,,0.00,274.000000,,2013-03-22 22:53:00,
2013-03-22 17:02:00,33.0,13.0,-100.00,NE,44,2.0,10.0,44,0.00,,,0.00,274.000000,,2013-03-22 23:02:00,
2013-03-22 17:12:00,33.0,13.0,-100.00,NE,44,2.0,10.0,44,0.00,,,0.00,274.000000,,2013-03-22 23:12:00,
2013-03-22 17:22:00,33.0,13.0,-100.00,NE,44,2.0,10.0,44,0.00,,,0.00,274.000000,,2013-03-22 23:22:00,
2013-03-22 17:23:00,29.0,20.0,-100.00,North,8,1.0,6.0,69,0.00,,,0.00,85.000000,,2013-03-22 23:23:00,
2013-03-22 17:42:00,29.0,20.0,-100.00,North,8,1.0,6.0,69,0.00,,,0.00,85.000000,,2013-03-22 23:42:00,
2013-03-22 17:52:00,29.0,20.0,-100.00,North,8,1.0,6.0,69,0.00,,,0.00,85.000000,,2013-03-22 23:52:00,
2013-03-22 18:02:00,29.0,20.0,-100.00,North,8,1.0,6.0,69,0.00,,,0.00,85.000000,,2013-03-23 00:02:00,
2013-03-22 18:12:00,29.0,20.0,-100.00,North,8,1.0,6.0,69,0.00,,,0.00,85.000000,,2013-03-23 00:12:00,
2013-03-22 18:42:00,29.0,20.0,-100.00,South,186,1.0,5.0,68,0.00,,,0.00,100.000000,,2013-03-23 00:42:00,
2013-03-22 18:52:00,29.0,20.0,-100.00,South,186,1.0,5.0,68,0.00,,,0.00,100.000000,,2013-03-23 00:52:00,
2013-03-22 19:03:00,29.0,20.0,-100.00,South,186,1.0,5.0,68,0.00,,,0.00,100.000000,,2013-03-23 01:03:00,
2013-03-22 19:12:00,29.0,20.0,-100.00,South,186,1.0,5.0,68,0.00,,,0.00,100.000000,,2013-03-23 01:12:00,
2013-03-22 19:22:00,29.0,20.0,-100.00,South,186,1.0,5.0,68,0.00,,,0.00,100.000000,,2013-03-23 01:22:00,
2013-03-22 19:43:00,28.0,17.0,-100.00,WNW,298,3.0,5.0,63,0.00,,,0.00,35.000000,,2013-03-23 01:43:00,
2013-03-22 19:52:00,28.0,17.0,-100.00,WNW,298,3.0,5.0,63,0.00,,,0.00,35.000000,,2013-03-23 01:52:00,
2013-03-22 20:02:00,28.0,17.0,-100.00,WNW,298,3.0,5.0,63,0.00,,,0.00,35.000000,,2013-03-23 02:02:00,
2013-03-22 20:12:00,28.0,17.0,-100.00,WNW,298,3.0,5.0,63,0.00,,,0.00,35.000000,,2013-03-23 02:12:00,
2013-03-22 20:22:00,28.0,17.0,-100.00,WNW,298,3.0,5.0,63,0.00,,,0.00,35.000000,,2013-03-23 02:22:00,
2013-03-22 20:42:00,29.0,13.0,-100.00,WNW,301,3.0,5.0,50,0.00,,,0.00,0.000000,,2013-03-23 02:42:00,
2013-03-22 20:52:00,29.0,13.0,-100.00,WNW,301,3.0,5.0,50,0.00,,,0.00,0.000000,,2013-03-23 02:52:00,
2013-03-22 21:02:00,29.0,13.0,-100.00,WNW,301,3.0,5.0,50,0.00,,,0.00,0.000000,,2013-03-23 03:02:00,
2013-03-22 21:12:00,29.0,13.0,-100.00,WNW,301,3.0,5.0,50,0.00,,,0.00,0.000000,,2013-03-23 03:12:00,
2013-03-22 21:22:00,29.0,13.0,-100.00,WNW,301,3.0,5.0,50,0.00,,,0.00,0.000000,,2013-03-23 03:22:00,
2013-03-22 21:23:00,28.0,12.0,-100.00,WNW,297,2.0,4.0,50,0.00,,,0.00,0.000000,,2013-03-23 03:23:00,
2013-03-22 21:43:00,28.0,12.0,-100.00,WNW,297,2.0,4.0,50,0.00,,,0.00,0.000000,,2013-03-23 03:43:00,
2013-03-22 21:53:00,28.0,12.0,-100.00,WNW,297,2.0,4.0,50,0.00,,,0.00,0.000000,,2013-03-23 03:53:00,
2013-03-22 22:02:00,28.0,12.0,-100.00,WNW,297,2.0,4.0,50,0.00,,,0.00,0.000000,,2013-03-23 04:02:00,
2013-03-22 22:12:00,28.0,12.0,-100.00,WNW,297,2.0,4.0,50,0.00,,,0.00,0.000000,,2013-03-23 04:12:00,
2013-03-22 22:43:00,29.0,9.0,-100.00,West,276,3.0,10.0,42,0.00,,,0.00,0.000000,,2013-03-23 04:43:00,
2013-03-22 22:53:00,29.0,9.0,-100.00,West,276,3.0,10.0,42,0.00,,,0.00,0.000000,,2013-03-23 04:53:00,
2013-03-22 23:02:00,29.0,9.0,-100.00,West,276,3.0,10.0,42,0.00,,,0.00,0.000000,,2013-03-23 05:02:00,
2013-03-22 23:12:00,29.0,9.0,-100.00,West,276,3.0,10.0,42,0.00,,,0.00,0.000000,,2013-03-23 05:12:00,
2013-03-22 23:22:00,29.0,9.0,-100.00,West,276,3.0,10.0,42,0.00,,,0.00,0.000000,,2013-03-23 05:22:00,
2013-03-22 23:42:00,25.0,13.0,-100.00,SSW,211,3.0,7.0,60,0.00,,,0.00,0.000000,,2013-03-23 05:42:00,
2013-03-22 23:52:00,25.0,13.0,-100.00,SSW,211,3.0,7.0,60,0.00,,,0.00,0.000000,,2013-03-23 05:52:00,